sat.trackr.live / text

‹ back to catalog

SKYSAT-C10

NORAD 42988 · 2017-068B

PAYLOAD ACTIVE UNKNOWN

§ Identity

Operator
Country
US
Launch date
2017-10-31
Launch site
AFWTR
Launch vehicle
Mass (kg)
RCS (m²)

Purposes: earth_obs

External: N2YO · Heavens-Above · Gunter

§ Orbital elements

Epoch: 2026-05-25T03:24:03.685248Z

Period
93.86 min
Inclination
97.4473°
Eccentricity
0.0001586
Mean motion
15.34179313 rev/d
Perigee alt
462.3 km
Apogee alt
464.4 km
Semi-major
6,841.5 km
B*
2.6269e-4
RAAN
281.7768°
Arg perigee
94.2052°
Mean anomaly
265.9372°
Rev number
47,882

§ Raw data

SKYSAT-C101 42988U 17068B   26145.14170932  .00008611  00000+0  26269-3 0  99912 42988  97.4473 281.7768 0001586  94.2052 265.9372 15.34179313478828

JSON: /api/v1/satellites/42988 · /tle

For live sub-satellite position, see the globe view (requires WebGL).

§ Visibility from observer

Set your observer location to see the next 7 days of passes ≥ 10°. The values pass through the URL so the page stays shareable.

No JS? Fill the form by hand. The geolocation button needs JavaScript.